Location: Sawyer Lake
(45.2517°N, 88.7550°W)
Time: 01:32:03
(UTC-06:00)

Daily predictions for brighter satellites

Satellite Brightness Start Highest point End
(mag) Time Altitude Azimuth Time Altitude Azimuth Time Altitude Azimuth
USA 234 4.2 03:48:55 10° NE 03:52:58 38° NNE 03:52:58 38° NNE
CZ-4C R/B 3.7 03:55:29 40° NNE 03:56:23 42° NE 04:03:42 10° ESE
ATLAS 3B R/B 4.4 04:11:24 19° N 04:11:24 19° N 04:14:29 10° NNE
CENTAUR R/B 3.5 04:16:42 39° N 04:16:42 39° N 04:21:26 10° NNE
Cosmos 2263 Rocket 4.0 04:31:07 20° N 04:31:07 20° N 04:32:50 10° NNE
Cosmos 1386 Rocket 4.4 04:35:00 78° S 04:35:30 89° E 04:41:58 10° N
ATLAS CENTAUR R/B 3.6 04:41:47 19° NE 04:42:02 19° NE 04:45:02 10° E
Cosmos 2278 Rocket 4.5 04:44:49 10° SSE 04:49:11 23° E 04:53:32 10° NE
CZ-2C R/B 3.8 04:53:00 10° NNE 04:57:12 34° E 05:01:26 10° SSE
IDEFIX/ARIANE 42P 3.3 04:52:12 10° NNE 04:57:23 52° E 05:02:30 10° S
Cosmos 1076 Rocket 4.1 04:57:33 41° NNE 04:58:45 55° ENE 05:02:58 10° SSE
COSMOS 2455 3.0 05:00:51 54° NW 05:00:51 54° NW 05:06:25 10° NNE
Cosmos 1844 Rocket 2.6 05:05:21 28° SSW 05:08:23 88° ESE 05:14:00 10° NNE
Okean 3 Rocket 3.6 05:09:16 44° N 05:10:39 79° E 05:15:02 10° SSE
BREEZE-M DEB (TANK) 3.3 05:09:41 48° WNW 05:11:00 60° NNW 05:14:18 10° ENE
Lacrosse 5 2.8 05:13:00 33° SSW 05:13:00 33° SSW 05:16:35 10° SSE
CZ-3B R/B 4.0 05:11:45 41° NNE 05:12:00 42° NE 05:18:36 10° ESE
Okean-O 2.8 05:09:06 10° NNE 05:13:33 72° ESE 05:17:58 10° S
Cosmos 407 Rocket 3.9 05:18:27 43° NW 05:18:27 43° NW 05:22:44 10° N
Cosmos 1844 3.7 05:13:25 10° SSW 05:19:10 83° ESE 05:24:54 10° NNE
COSMO-SKYMED 1 2.4 05:17:03 10° S 05:21:21 66° WSW 05:21:27 66° W
Cosmos 676 Rocket 3.9 05:20:41 37° SW 05:22:37 65° WNW 05:27:48 10° NNE
Cosmos 1709 Rocket 3.9 05:18:13 10° SSW 05:24:27 66° W 05:30:49 10° N
Cosmos 2082 Rocket 3.7 05:23:28 10° N 05:28:31 33° NE 05:33:31 10° ESE
Meteor 1-21 Rocket 4.5 05:27:00 32° NW 05:29:12 47° W 05:34:40 10° SSW
Cosmos 1140 Rocket 3.3 05:25:42 11° SSW 05:30:37 70° WNW 05:35:46 10° NNE
NOAA 6 3.9 05:26:56 10° N 05:32:06 68° WNW 05:37:15 10° SSW
Cosmos 332 Rocket 3.7 05:29:23 24° NNW 05:32:21 88° WSW 05:37:14 10° SSE
COSMOS 2406 3.3 05:30:53 35° NW 05:32:59 54° WSW 05:38:29 10° S
Cosmos 2184 Rocket 4.5 05:27:00 10° S 05:33:08 63° E 05:39:23 10° NNE
Cosmos 1850 Rocket 4.4 05:28:29 10° S 05:33:39 64° ESE 05:38:54 10° NNE
Cosmos 1954 Rocket 3.9 05:30:08 16° SW 05:34:09 61° WNW 05:39:19 10° NNE
DELTA 2 R/B (1) 4.3 05:33:00 30° WSW 05:35:05 41° SSW 05:40:18 10° SE
PAYLOAD A 3.7 05:30:17 10° N 05:35:14 72° WNW 05:39:59 10° SSW
MSX 4.0 05:30:32 10° NNE 05:36:18 73° ESE 05:42:01 10° S
Shenzhou-11 Module 3.3 05:36:31 30° S 05:36:59 32° SSE 05:39:44 10° E
USA 234 4.2 05:31:50 10° NE 05:37:32 33° N 05:40:19 24° NW
SL-14 R/B 3.3 05:40:49 48° W 05:40:54 49° W 05:44:36 10° S
Meteor 2-8 Rocket 4.4 05:34:56 10° N 05:41:09 87° W 05:47:17 10° S
CZ-4C R/B 3.0 05:40:41 24° NW 05:45:20 61° WSW 05:53:11 10° SSE
Tiangong 2 3.7 05:43:56 10° SSW 05:46:08 17° SSE 05:48:21 10° ESE
SL-27 R/B 3.8 05:44:05 11° N 05:47:23 41° ENE 05:50:52 10° SE
Cosmos 1484 Rocket 4.0 05:43:55 10° NNE 05:47:29 41° E 05:51:02 10° S
Radarsat Rocket 4.1 05:41:44 10° NNE 05:48:38 76° WNW 05:54:46 10° SSW
Cosmos 1626 2.0 05:48:26 11° N 05:51:59 85° W 05:55:42 10° S
Cosmos 1570 Rocket 3.9 05:52:21 11° NNW 05:57:21 75° WSW 06:02:34 10° SSE
Cosmos 1315 Rocket 3.3 05:56:55 28° NW 05:58:17 37° W 06:01:58 10° SSW
BREEZE-M DEB (TANK) 3.6 05:59:34 26° NW 06:01:29 66° NNE 06:10:50 10° ESE
Meteor 2-19 Rocket 4.4 05:56:01 10° S 06:02:05 84° W 06:08:11 10° N
Cosmos 1174 4.4 05:59:47 13° NNW 06:03:37 53° NE 06:07:07 10° SE
Cosmos 1833 Rocket 3.2 05:58:11 10° NNW 06:03:47 60° ENE 06:09:21 10° SE
COSMOS 2441 4.3 05:59:17 10° N 06:04:04 68° WNW 06:08:50 10° SSW
EO 1 Del DPAF 4.1 06:01:14 10° SSW 06:04:35 29° W 06:05:37 25° WNW
CENTAUR R/B 4.0 06:03:54 17° NW 06:06:55 22° NNW 06:12:30 10° NNE
Cosmos 1408 Rocket 3.6 06:04:34 10° NNW 06:08:50 53° W 06:13:05 10° S
Cosmos-2242 3.1 06:05:40 10° SSW 06:09:53 54° WNW 06:14:08 10° N
Cosmos 2074 Rocket 3.9 06:04:32 10° SSW 06:10:42 67° W 06:16:56 10° N
Cosmos 1763 Rocket 4.1 06:07:46 10° NNW 06:12:46 55° ENE 06:17:46 10° SE
Cosmos 2263 Rocket 4.1 06:12:50 11° NW 06:12:53 11° NW 06:14:04 10° NNW
SJ-12 4.0 06:11:26 10° N 06:15:27 53° WNW 06:19:27 10° SSW
Cosmos 371 Rocket 3.9 06:15:26 13° NW 06:19:19 36° WSW 06:23:44 10° SSW
Cosmos 1500 Rocket 3.7 06:16:04 10° N 06:20:32 78° E 06:24:55 10° SSE
ATLAS CENTAUR R/B 1.4 06:18:03 15° NW 06:21:21 65° WSW 06:25:37 10° SSE
Cosmos 1741 Rocket 4.2 06:20:03 10° SW 06:25:09 50° WNW 06:30:16 10° NNE
SAR-Lupe-3 4.5 06:22:34 10° S 06:26:08 76° WSW 06:29:45 10° NNW
Abrixas rocket 2.2 06:28:49 16° WNW 06:31:16 76° SSW 06:34:30 10° ESE
Ariane Rocket 3.2 06:26:09 10° NNE 06:31:17 79° ESE 06:36:23 10° SSW
Cosmos 2278 Rocket 2.3 06:27:16 10° SW 06:32:50 57° WNW 06:38:25 10° NNE
Cosmos 1743 Rocket 3.6 06:29:28 10° NNW 06:33:43 58° W 06:37:58 10° S
Cosmos 2151 3.0 06:31:03 10° NNW 06:35:19 60° W 06:39:33 10° S
CZ-2C R/B 3.1 06:31:31 10° N 06:35:21 27° WNW 06:39:14 10° WSW
Cosmos 2058 3.0 06:31:21 10° NNW 06:35:29 55° W 06:39:35 10° S
SMAP 3.0 06:31:16 10° N 06:35:56 77° WNW 06:40:34 10° SSW
IDEFIX/ARIANE 42P 3.6 06:32:31 10° N 06:36:38 24° WNW 06:40:44 10° WSW
CORIOLIS 4.3 06:34:22 10° NNE 06:39:46 86° ESE 06:45:11 10° SSW
Cosmos 2341 Rocket 4.2 06:34:41 10° S 06:40:54 81° E 06:47:08 10° N
USA 81 4.1 06:37:32 10° N 06:42:50 87° W 06:48:06 10° S
CSL-04 Rocket 3.6 06:40:00 10° N 06:45:23 70° WNW 06:50:40 10° SSW
COSMOS 2455 4.4 06:44:14 10° WNW 06:47:49 16° NNW 06:51:24 10° N
Cosmos 2221 2.8 06:43:52 10° S 06:48:07 72° E 06:52:24 10° NNE
Okean-O 4.3 06:47:12 10° NNW 06:49:27 14° WNW 06:51:43 10° W
NOSS 3-1 (C) 4.1 06:44:05 10° SSW 06:49:40 61° ESE 06:56:00 10° NE
Cosmos 1844 Rocket 4.0 06:49:16 10° W 06:53:04 18° NW 06:56:53 10° N
Cosmos 2154 Rocket 4.1 06:52:43 10° SSW 06:58:46 54° WNW 07:04:53 10° N
CZ-4 R/B 1.6 06:57:04 10° N 07:01:07 52° WNW 07:05:03 10° SSW
Thor Agena Rocket 4.4 06:56:48 10° SSW 07:01:23 31° W 07:06:02 10° NW
